Location: Kirkcaldy
(50.3333°N, 113.2333°W)
Time: 22:27:19
(UTC+00:00)

Envisat - Visible Passes

Search period start: 10 June 2023 00:00
Search period end: 20 June 2023 00:00
Orbit: 763 x 765 km, 98.2° (Epoch: 10 June)

Date Brightness Start Highest point End Pass type
(mag) Time Alt. Az. Time Alt. Az. Time Alt. Az.
10 Jun 5.9 09:50:08 10° ENE 09:51:07 10° E 09:52:06 10° E visible
12 Jun 5.5 10:12:51 10° NE 10:16:13 18° E 10:19:34 10° SE visible
14 Jun 4.9 10:36:51 10° NE 10:41:12 28° E 10:45:31 10° SSE visible
15 Jun 5.6 10:01:00 10° NE 10:03:36 14° E 10:06:10 10° ESE visible
17 Jun 5.2 10:24:41 10° NE 10:28:38 22° E 10:32:33 10° SE visible
18 Jun 5.8 09:49:47 10° ENE 09:50:56 11° E 09:52:05 10° E visible
